Location: Peebles
(55.6412°N, 3.1714°W)
Time: 17:03:11
(UTC+01:00)

Cosmos 1934 Rocket - Pass Details

Date: 05 February 2022
Orbit: 938 x 999 km, 83.0° (Epoch: 25 May)

Event Time Altitude Azimuth Distance (km) Brightness Sun altitude
Rises 17:49:37 0° 346° (NNW) 3,631 7.0 -7.9°
Reaches altitude 10° 17:52:10 10° 342° (NNW) 2,676 6.3 -8.2°
Maximum altitude 17:58:04 53° 268° (W) 1,148 4.9 -9.0°
Drops below altitude 10° 18:03:53 10° 193° (SSW) 2,649 6.7 -9.8°
Sets 18:06:24 0° 189° (S) 3,590 7.3 -10.1°
